TimeEST,TemperatureF,Dew PointF,Humidity,Sea Level PressureIn,VisibilityMPH,Wind Direction,Wind SpeedMPH,Gust SpeedMPH,PrecipitationIn,Events,Conditions,WindDirDegrees,DateUTC
12:54 AM,48.0,39.0,71,30.44,10.0,NE,9.2,-,N/A,,Scattered Clouds,50,2013-01-11 05:54:00
1:54 AM,48.9,39.9,71,30.42,10.0,ENE,9.2,-,N/A,,Scattered Clouds,70,2013-01-11 06:54:00
2:54 AM,48.9,42.1,77,30.40,10.0,ENE,9.2,-,N/A,,Mostly Cloudy,70,2013-01-11 07:54:00
3:54 AM,50.0,43.0,77,30.38,10.0,ENE,6.9,-,N/A,,Overcast,70,2013-01-11 08:54:00
4:54 AM,50.0,44.1,80,30.37,10.0,ENE,4.6,-,N/A,,Mostly Cloudy,70,2013-01-11 09:54:00
5:54 AM,50.0,44.1,80,30.35,10.0,East,4.6,-,N/A,,Mostly Cloudy,90,2013-01-11 10:54:00
6:54 AM,50.0,45.0,83,30.36,10.0,NE,3.5,-,N/A,,Scattered Clouds,50,2013-01-11 11:54:00
7:54 AM,51.1,46.9,86,30.35,10.0,Calm,Calm,-,N/A,,Mostly Cloudy,0,2013-01-11 12:54:00
8:54 AM,57.0,50.0,77,30.36,10.0,East,6.9,-,N/A,,Mostly Cloudy,100,2013-01-11 13:54:00
9:54 AM,64.9,54.0,68,30.34,10.0,SE,9.2,-,N/A,,Mostly Cloudy,140,2013-01-11 14:54:00
10:54 AM,69.1,55.0,61,30.30,10.0,SE,15.0,-,N/A,,Mostly Cloudy,130,2013-01-11 15:54:00
11:54 AM,70.0,57.0,63,30.27,10.0,SSE,12.7,20.7,N/A,,Overcast,150,2013-01-11 16:54:00
12:32 PM,69.8,57.2,64,30.27,10.0,SSE,12.7,21.9,N/A,,Overcast,150,2013-01-11 17:32:00
12:54 PM,71.1,57.9,63,30.26,10.0,SSE,15.0,-,N/A,,Overcast,160,2013-01-11 17:54:00
1:41 PM,71.6,59.0,64,30.24,10.0,SSE,12.7,20.7,N/A,,Overcast,150,2013-01-11 18:41:00
1:54 PM,70.0,59.0,68,30.22,10.0,SSE,16.1,26.5,N/A,,Mostly Cloudy,160,2013-01-11 18:54:00
2:14 PM,69.8,60.8,73,30.23,10.0,SSE,10.4,23.0,N/A,,Overcast,150,2013-01-11 19:14:00
2:22 PM,69.8,60.8,73,30.23,10.0,SSE,10.4,17.3,N/A,,Mostly Cloudy,160,2013-01-11 19:22:00
2:54 PM,69.1,61.0,75,30.21,6.0,SSE,11.5,19.6,0.00,Rain,Light Rain,150,2013-01-11 19:54:00
3:01 PM,69.8,60.8,73,30.21,8.0,South,15.0,18.4,0.00,Rain,Light Rain,170,2013-01-11 20:01:00
3:54 PM,64.9,62.1,90,30.22,2.0,WSW,11.5,-,0.13,Rain,Rain,240,2013-01-11 20:54:00
4:01 PM,64.4,62.6,94,30.23,3.0,SSW,8.1,-,0.00,Rain,Light Rain,210,2013-01-11 21:01:00
4:54 PM,64.9,62.1,90,30.20,10.0,Calm,Calm,-,0.00,,Scattered Clouds,0,2013-01-11 21:54:00
5:54 PM,63.0,61.0,93,30.20,10.0,SSE,3.5,-,N/A,,Mostly Cloudy,150,2013-01-11 22:54:00
5:56 PM,62.6,60.8,94,30.21,10.0,SSE,3.5,-,N/A,,Mostly Cloudy,160,2013-01-11 22:56:00
6:28 PM,62.6,60.8,94,30.21,6.0,Calm,Calm,-,N/A,,Mostly Cloudy,0,2013-01-11 23:28:00
6:41 PM,62.6,60.8,94,30.21,1.8,Calm,Calm,-,N/A,,Mostly Cloudy,0,2013-01-11 23:41:00
6:47 PM,62.6,60.8,94,30.20,0.8,South,3.5,-,N/A,,Mostly Cloudy,170,2013-01-11 23:47:00
6:54 PM,62.1,60.1,93,30.19,1.5,Calm,Calm,-,N/A,,Mostly Cloudy,0,2013-01-11 23:54:00
6:58 PM,62.6,60.8,94,30.20,3.0,South,3.5,-,N/A,,Mostly Cloudy,180,2013-01-11 23:58:00
7:05 PM,62.6,60.8,94,30.20,5.0,South,4.6,-,N/A,,Scattered Clouds,180,2013-01-12 00:05:00
7:50 PM,62.6,60.8,94,30.20,8.0,WSW,5.8,-,0.01,,Mostly Cloudy,240,2013-01-12 00:50:00
7:54 PM,63.0,61.0,93,30.19,7.0,SW,4.6,-,0.01,,Mostly Cloudy,230,2013-01-12 00:54:00
8:30 PM,62.6,60.8,94,30.19,7.0,South,4.6,-,N/A,,Partly Cloudy,190,2013-01-12 01:30:00
8:54 PM,63.0,61.0,93,30.18,9.0,South,8.1,-,N/A,,Clear,190,2013-01-12 01:54:00
9:54 PM,63.0,60.1,90,30.18,10.0,SW,5.8,-,N/A,,Clear,230,2013-01-12 02:54:00
10:54 PM,63.0,59.0,87,30.16,10.0,SW,9.2,-,N/A,,Clear,230,2013-01-12 03:54:00
11:54 PM,62.1,59.0,90,30.16,10.0,SW,8.1,-,N/A,,Clear,230,2013-01-12 04:54:00